Powrót do katalogu

COSMOS 1867 COOLANT

AktywnyLEO
NORAD 39677·DEBRIS·🇷🇺 Russia

Wystrzelony Jul 10, 1987 z Baikonur Cosmodrome

Loading…

Następne Przeloty (najbliższe 24 godziny)

TLE

ŚwieżeSource: Space-Track

Epoka: Sep 13, 2026, 15:27 UTC

1 39677U 87060AQ  26256.64395874  .00000136  00000-0  84852-4 0  9991
2 39677  65.0036 121.4962 0018641 281.4135  78.4856 14.33864241649242

Śledź COSMOS 1867 COOLANT w czasie rzeczywistym z AllMySat

Download on the App Store